Regional Weather Roundup
Issued by NWS New Orleans/Baton Rouge, LA

Home | Current Version | Previous Version | Text Only | Print | Product List | Glossary On
Versions: 1 2 3 4 5 6 7 8 9 10 11 12 13 14 15 16 17 18 19 20 21 22 23 24 25 26 27 28 29 30 31 32 33 34 35 36 37 38 39 40 41 42 43 44 45 46 47 48 49 50
000
ASUS44 KLIX 281610
RWRLIX
NEW ORLEANS REGIONAL WEATHER ROUNDUP
NATIONAL WEATHER SERVICE NEW ORLEANS LA
1100 AM CDT MON JUL 28 2014

NOTE: "FAIR" INDICATES FEW OR NO CLOUDS BELOW 12,000 FEET WITH NO
      SIGNIFICANT WEATHER AND/OR OBSTRUCTIONS TO VISIBILITY.
      SKY/WX - SKY CONDITION AND SIGNIFICANT WEATHER.
      TMP - AIR TEMPERATURE.     DP    - DEWPOINT TEMPERATURE.
      RH  - RELATIVE HUMIDITY.   PRES  - PRESSURE.
      HI  - HEAT INDEX.          WCI   - WIND CHILL INDEX.

*  THESE STATIONS ARE NOT NWS OR FAA STATIONS AND ARE NOT UNDER
   NWS QUALITY CONTROL.

LAZ038-040-048-061>063-065>067-069-281700-
SOUTHEAST LOUISIANA

CITY           SKY/WX    TMP DP  RH WIND       PRES   REMARKS
N.O. AUDUBON     N/A     93  75  56 MISG        N/A  HX 104
N.O. INTL ARPT PTSUNNY   90  74  59 W14       30.10R HX  99
N.O. LAKEFRONT SUNNY     87  77  72 W14       30.10R HX  99
N.O. DOWNTOWN*   N/A     90  73  58 W8        30.10S HX  98
SLIDELL        MOSUNNY   89  75  63 VRB7      30.07F HX  99
BATON ROUGE    PTSUNNY   87  76  69 W12       30.09F HX  97
BOOTHVILLE     MOSUNNY   87  76  69 W14       30.11R HX  97
BELLE CHASSE   PTSUNNY   89  74  60 W10       30.09S HX  98
BOGALUSA*        N/A     90  75  61 W8        30.08S HX 100
GALLIANO*      NOT AVBL
NEW ROADS*       N/A     86  76  73 W7        30.10S HX  96
GONZALES*      CLOUDY    86  78  77 W5        30.10S HX  98
HAMMOND*       MOSUNNY   90  73  58 W9        30.10S HX  98
HOUMA*         MOSUNNY   90  72  55 W9        30.10F HX  96
PORT FOURCHON* MOSUNNY   88  77  70 W12       30.13S HX 100

$$

MSZ070-080>082-281700-
SOUTHERN MISSISSIPPI

CITY           SKY/WX    TMP DP  RH WIND       PRES   REMARKS
MCCOMB         PTSUNNY   86  75  69 NW9G21    30.09S HX  95
GULFPORT       MOSUNNY   93  76  57 W14       30.05F HX 105
BILOXI         MOSUNNY   92  78  65 VRB3      30.06F HX 107
PASCAGOULA     SUNNY     91  76  61 W7        30.05F HX 103
STENNIS ARPT*  MOSUNNY  N/A N/A N/A NW13      30.07F

$$

COASTAL OBSERVATIONS
LAKE AND NEARSHORE STATIONS

STATION/POSITION TIME  TEMP    WIND        PRES    WAVE
                       AIR SEA DIR/SP/G            HT/PER
                 (UTC) (F)     (DEG/KT/KT) (MB)    (FT/S)
PASCAGOULA       1600   87     240/ 11/ 17 1017.3
WAVELAND YACHT   1600   87     300/  9/ 14 1017.5
GRAND ISLE       1600   85 86  300/ 13/ 15 1020.1
SOUTHWEST PASS   1600   86 84  310/  9/ 15 1019.9
NEW CANAL        1600   87 85  280/  5/  9 1019.5
SHELL BEACH      1600   85 82  300/ 14/ 15 1018.7

OFFSHORE STATIONS

STATION/POSITION TIME  TEMP    WIND        PRES    WAVE
                       AIR SEA DIR/SP/G            HT/PER
                 (UTC) (F)     (DEG/KT/KT) (MB)    (FT/S)
64 S DAUPHIN ISL 1512   84 86  290/ 16/ 19 1019.1

$$



USA.gov is the U.S. government's official web portal to all federal, state and local government web resources and services.